Weather History for Olathe, KS

Change the Weather History Date:

Saturday, February 9, 2013

  Actual Average Record
Temperature  
Mean Temperature 38 °F 33 °F  
Max Temperature 47 °F 43 °F 72 °F (1943)
Min Temperature 28 °F 24 °F -12 °F (1979)
Degree Days  
Heating Degree Days 27 32  
Month to date heating degree days 259 295  
Since 1 July heating degree days 3022 3343  
Cooling Degree Days 0 0  
Month to date cooling degree days 0 0  
Year to date cooling degree days 1 0  
Moisture  
Dew Point 31 °F    
Average Humidity 79    
Maximum Humidity 100    
Minimum Humidity 58    
Precipitation  
Precipitation 0.02 in 0.06 in 0.64 in (2001)
Month to date precipitation 0.89 0.49  
Year to date precipitation 2.68 1.61  
Sea Level Pressure  
Sea Level Pressure 30.04 in    
Wind  
Wind Speed 13 mph (SE)    
Max Wind Speed 22 mph    
Max Gust Speed 26 mph    
Visibility 7 miles    
Events Rain    
T = Trace of Precipitation, MM = Missing Value Source: NWS Daily Summary

Daily Weather History Graph

Daily Weather History Graph

Search for Another Location

Airport:

Trip Planner

Search our weather history database for the weather conditions in past years. The results will help you decide how hot, cold, wet, or windy it might be!

Date:

Astronomy

Feb. 09, 2013 Rise Set
Actual Time 7:16 AM CST 5:50 PM CST
Civil Twilight 6:49 AM CST 6:17 PM CST
Nautical Twilight 6:17 AM CST 6:49 PM CST
Astronomical Twilight 5:46 AM CST 7:20 PM CST
Moon 6:29 AM CST (2/9) 5:33 PM CST (2/9)
Length of Visible Light 11h 28m
Length of Day
10h 33m
Waning Crescent, 0% of the Moon is Illuminated
Feb 9
Waning Crescent
Feb 10
New
Feb 17
First Quarter
Feb 25
Full
Mar 4
Last Quarter

Hourly Weather History & Observations

Time (CST) Temp. Windchill Dew Point Humidity Pressure Visibility Wind Dir Wind Speed Gust Speed Precip Events Conditions
12:53 AM 28.9 °F 20.4 °F 26.1 °F 89% 30.23 in 5.0 mi ESE 9.2 mph - N/A   Clear
1:53 AM 28.9 °F 19.2 °F 27.0 °F 92% 30.23 in 6.0 mi SE 11.5 mph - N/A   Clear
2:20 AM 28.4 °F 19.1 °F 26.6 °F 93% 30.20 in 6.0 mi ESE 10.4 mph - N/A   Partly Cloudy
2:53 AM 28.0 °F 17.5 °F 27.0 °F 96% 30.21 in 6.0 mi SE 12.7 mph - N/A   Partly Cloudy
3:53 AM 28.9 °F 19.8 °F 27.0 °F 92% 30.20 in 6.0 mi SE 10.4 mph - N/A   Partly Cloudy
4:53 AM 28.9 °F 19.8 °F 27.0 °F 92% 30.18 in 6.0 mi SE 10.4 mph - N/A   Clear
5:53 AM 28.9 °F 20.4 °F 28.0 °F 96% 30.17 in 6.0 mi SE 9.2 mph - N/A   Clear
6:53 AM 28.9 °F 19.8 °F 28.0 °F 96% 30.17 in 6.0 mi SE 10.4 mph - N/A   Clear
7:51 AM 28.4 °F 19.7 °F 28.4 °F 100% 30.15 in 4.0 mi SSE 9.2 mph - N/A   Scattered Clouds
7:53 AM 28.9 °F 20.4 °F 28.0 °F 96% 30.18 in 4.0 mi SSE 9.2 mph - N/A   Scattered Clouds
7:57 AM 28.4 °F 19.7 °F 28.4 °F 100% 30.15 in 4.0 mi SSE 9.2 mph - N/A   Mostly Cloudy
8:53 AM 30.0 °F 20.5 °F 28.9 °F 96% 30.17 in 4.0 mi SSE 11.5 mph - N/A   Mostly Cloudy
9:53 AM 32.0 °F 22.5 °F 30.0 °F 92% 30.16 in 5.0 mi SSE 12.7 mph - N/A   Mostly Cloudy
9:54 AM 32.0 °F 22.5 °F 30.2 °F 93% 30.13 in 5.0 mi SSE 12.7 mph - N/A   Mostly Cloudy
9:56 AM 32.0 °F 22.5 °F 30.2 °F 93% 30.13 in 5.0 mi SSE 12.7 mph - N/A   Scattered Clouds
10:53 AM 37.0 °F 28.5 °F 32.0 °F 82% 30.14 in 7.0 mi SSE 13.8 mph - N/A   Clear
11:53 AM 39.0 °F 31.8 °F 32.0 °F 76% 30.10 in 8.0 mi SSE 11.5 mph - N/A   Clear
12:53 PM 41.0 °F 34.7 °F 33.1 °F 73% 30.05 in 9.0 mi SE 10.4 mph - N/A   Clear
1:53 PM 44.1 °F 38.6 °F 34.0 °F 68% 29.99 in 9.0 mi SSE 10.4 mph - N/A   Mostly Cloudy
2:53 PM 46.0 °F 39.9 °F 33.1 °F 61% 29.98 in 10.0 mi SSE 13.8 mph - N/A   Clear
3:53 PM 45.0 °F 39.3 °F 32.0 °F 60% 29.95 in 10.0 mi SE 11.5 mph - N/A   Mostly Cloudy
4:53 PM 45.0 °F 37.9 °F 30.9 °F 58% 29.93 in 10.0 mi SSE 16.1 mph 23.0 mph N/A   Overcast
5:53 PM 43.0 °F 34.2 °F 30.9 °F 62% 29.90 in 10.0 mi SSE 20.7 mph 26.5 mph 0.00 in Rain Light Rain
6:53 PM 39.9 °F 32.1 °F 34.0 °F 79% 29.87 in 8.0 mi SSE 13.8 mph - 0.01 in Rain Light Rain
7:53 PM 39.0 °F 31.0 °F 35.1 °F 86% 29.88 in 10.0 mi SSE 13.8 mph - 0.01 in   Overcast
8:53 PM 37.9 °F 29.2 °F 35.1 °F 89% 29.85 in 10.0 mi SSE 15.0 mph 20.7 mph 0.00 in   Overcast
9:53 PM 37.9 °F 28.9 °F 35.1 °F 89% 29.83 in 10.0 mi SSE 16.1 mph 23.0 mph N/A   Overcast
10:53 PM 39.0 °F 31.8 °F 37.0 °F 93% 29.79 in 8.0 mi SSE 11.5 mph - N/A   Overcast
11:06 PM 39.2 °F 31.6 °F 37.4 °F 93% 29.76 in 5.0 mi SSE 12.7 mph - N/A   Overcast
11:33 PM 39.2 °F 30.2 °F 37.4 °F 93% 29.75 in 8.0 mi SSE 17.3 mph 23.0 mph N/A   Overcast
11:53 PM 39.0 °F 29.3 °F 37.9 °F 96% 29.76 in 7.0 mi SSE 19.6 mph 24.2 mph N/A   Overcast